TimeCST,TemperatureF,Dew PointF,Humidity,Sea Level PressureIn,VisibilityMPH,Wind Direction,Wind SpeedMPH,Gust SpeedMPH,PrecipitationIn,Events,Conditions,WindDirDegrees,DateUTC
12:15 AM,44.6,34.3,67,30.06,10.0,ESE,6.9,-,N/A,,Clear,120,2012-11-30 06:15:00
12:35 AM,44.6,34.2,67,30.05,10.0,SE,6.9,-,N/A,,Clear,130,2012-11-30 06:35:00
12:55 AM,44.6,34.3,67,30.05,10.0,SE,6.9,-,N/A,,Mostly Cloudy,130,2012-11-30 06:55:00
1:15 AM,45.1,34.7,67,30.05,10.0,SE,4.6,-,N/A,,Overcast,130,2012-11-30 07:15:00
1:35 AM,45.5,34.9,66,30.05,10.0,ESE,4.6,-,N/A,,Overcast,120,2012-11-30 07:35:00
1:55 AM,45.9,34.7,65,30.05,10.0,ESE,4.6,-,N/A,,Overcast,120,2012-11-30 07:55:00
2:15 AM,45.7,35.1,66,30.05,10.0,SE,5.8,-,N/A,,Overcast,130,2012-11-30 08:15:00
2:35 AM,45.5,34.9,66,30.04,10.0,SE,4.6,-,N/A,,Mostly Cloudy,140,2012-11-30 08:35:00
2:55 AM,46.2,34.3,63,30.03,10.0,SSE,5.8,-,N/A,,Scattered Clouds,150,2012-11-30 08:55:00
3:15 AM,45.3,33.8,64,30.04,10.0,South,3.5,-,N/A,,Scattered Clouds,190,2012-11-30 09:15:00
3:35 AM,47.1,34.7,62,30.04,10.0,South,4.6,-,N/A,,Overcast,190,2012-11-30 09:35:00
3:55 AM,48.2,34.9,60,30.03,10.0,South,6.9,-,N/A,,Mostly Cloudy,170,2012-11-30 09:55:00
4:15 AM,48.2,34.7,60,30.03,10.0,South,5.8,-,N/A,,Scattered Clouds,190,2012-11-30 10:15:00
4:35 AM,47.1,34.0,60,30.03,10.0,South,5.8,-,N/A,,Clear,180,2012-11-30 10:35:00
4:55 AM,48.0,34.0,58,30.03,10.0,South,4.6,-,N/A,,Clear,180,2012-11-30 10:55:00
5:15 AM,46.8,33.8,61,30.03,10.0,South,4.6,-,N/A,,Clear,190,2012-11-30 11:15:00
5:35 AM,46.2,33.8,62,30.03,10.0,South,4.6,-,N/A,,Clear,190,2012-11-30 11:35:00
5:55 AM,46.4,34.2,62,30.03,10.0,South,4.6,-,N/A,,Clear,180,2012-11-30 11:55:00
6:15 AM,46.0,33.8,62,30.03,10.0,South,4.6,-,N/A,,Clear,170,2012-11-30 12:15:00
6:35 AM,46.0,33.8,62,30.03,10.0,South,3.5,-,N/A,,Scattered Clouds,170,2012-11-30 12:35:00
6:55 AM,45.7,34.0,64,30.03,10.0,SSE,4.6,-,N/A,,Scattered Clouds,160,2012-11-30 12:55:00
7:15 AM,46.0,34.0,63,30.04,10.0,Calm,Calm,-,N/A,,Clear,0,2012-11-30 13:15:00
7:35 AM,46.2,34.2,63,30.05,10.0,Calm,Calm,-,N/A,,Clear,0,2012-11-30 13:35:00
7:55 AM,47.1,35.2,63,30.06,10.0,South,5.8,-,N/A,,Clear,190,2012-11-30 13:55:00
8:15 AM,47.5,35.4,63,30.07,10.0,South,4.6,-,N/A,,Clear,190,2012-11-30 14:15:00
8:35 AM,48.2,35.6,62,30.06,10.0,South,5.8,-,N/A,,Clear,190,2012-11-30 14:35:00
8:55 AM,49.5,35.6,59,30.06,10.0,South,5.8,-,N/A,,Clear,190,2012-11-30 14:55:00
9:15 AM,50.7,35.8,57,30.07,10.0,South,5.8,-,N/A,,Clear,190,2012-11-30 15:15:00
9:35 AM,51.6,35.4,54,30.07,10.0,South,8.1,-,N/A,,Clear,190,2012-11-30 15:35:00
9:55 AM,52.7,36.0,53,30.07,10.0,South,4.6,-,N/A,,Clear,190,2012-11-30 15:55:00
10:15 AM,54.0,35.8,50,30.07,10.0,South,4.6,-,N/A,,Clear,180,2012-11-30 16:15:00
10:35 AM,54.9,35.6,48,30.07,10.0,South,4.6,-,N/A,,Clear,190,2012-11-30 16:35:00
10:55 AM,55.6,35.2,46,30.06,10.0,South,4.6,-,N/A,,Clear,170,2012-11-30 16:55:00
11:15 AM,57.0,35.6,45,30.05,10.0,Calm,Calm,-,N/A,,Clear,0,2012-11-30 17:15:00
11:35 AM,57.7,35.2,43,30.05,10.0,Calm,Calm,-,N/A,,Clear,0,2012-11-30 17:35:00
11:55 AM,58.5,35.6,42,30.05,10.0,Calm,Calm,-,N/A,,Clear,0,2012-11-30 17:55:00
12:15 PM,59.0,35.6,42,30.04,10.0,Calm,Calm,-,N/A,,Clear,0,2012-11-30 18:15:00
12:35 PM,59.9,36.1,41,30.04,10.0,South,5.8,-,N/A,,Clear,180,2012-11-30 18:35:00
12:55 PM,60.3,35.4,39,30.04,10.0,Calm,Calm,-,N/A,,Clear,0,2012-11-30 18:55:00
1:15 PM,60.8,36.0,40,30.04,10.0,Calm,Calm,-,N/A,,Clear,0,2012-11-30 19:15:00
1:35 PM,61.9,36.5,39,30.04,10.0,Calm,Calm,-,N/A,,Clear,0,2012-11-30 19:35:00
1:55 PM,61.7,36.0,38,30.03,10.0,SW,3.5,-,N/A,,Clear,220,2012-11-30 19:55:00
2:15 PM,61.7,36.1,39,30.03,10.0,Calm,Calm,-,N/A,,Clear,0,2012-11-30 20:15:00
2:35 PM,61.7,36.0,38,30.03,10.0,Calm,Calm,-,N/A,,Clear,0,2012-11-30 20:35:00
2:55 PM,62.1,36.3,38,30.04,10.0,Calm,Calm,-,N/A,,Clear,0,2012-11-30 20:55:00
3:15 PM,61.9,36.7,39,30.05,10.0,Calm,Calm,-,N/A,,Clear,0,2012-11-30 21:15:00
3:35 PM,61.3,37.0,40,30.06,10.0,Calm,Calm,-,N/A,,Clear,0,2012-11-30 21:35:00
3:55 PM,59.5,37.8,44,30.07,10.0,Calm,Calm,-,N/A,,Clear,0,2012-11-30 21:55:00
4:15 PM,58.1,37.6,46,30.08,10.0,Calm,Calm,-,N/A,,Clear,0,2012-11-30 22:15:00
4:35 PM,53.8,37.9,55,30.09,10.0,Calm,Calm,-,N/A,,Clear,0,2012-11-30 22:35:00
4:55 PM,51.3,37.0,58,30.09,10.0,Calm,Calm,-,N/A,,Clear,0,2012-11-30 22:55:00
5:15 PM,49.6,36.5,61,30.09,10.0,Calm,Calm,-,N/A,,Clear,0,2012-11-30 23:15:00
5:35 PM,48.7,36.9,64,30.09,10.0,Calm,Calm,-,N/A,,Clear,0,2012-11-30 23:35:00
5:55 PM,46.6,36.1,67,30.11,10.0,Calm,Calm,-,N/A,,Scattered Clouds,0,2012-11-30 23:55:00
6:15 PM,46.6,36.9,69,30.10,10.0,ENE,3.5,-,N/A,,Scattered Clouds,60,2012-12-01 00:15:00
6:35 PM,51.4,38.1,60,30.10,10.0,ENE,5.8,-,N/A,,Clear,60,2012-12-01 00:35:00
6:55 PM,48.9,36.9,63,30.11,10.0,NNW,3.5,-,N/A,,Scattered Clouds,330,2012-12-01 00:55:00
7:15 PM,48.0,37.2,66,30.11,10.0,Calm,Calm,-,N/A,,Scattered Clouds,0,2012-12-01 01:15:00
7:35 PM,47.1,37.6,69,30.11,10.0,Calm,Calm,-,N/A,,Scattered Clouds,0,2012-12-01 01:35:00
7:55 PM,48.0,36.9,65,30.11,10.0,Calm,Calm,-,N/A,,Clear,0,2012-12-01 01:55:00
8:15 PM,47.3,36.5,66,30.11,10.0,Calm,Calm,-,N/A,,Clear,0,2012-12-01 02:15:00
8:35 PM,47.7,36.7,66,30.10,10.0,ENE,11.5,-,N/A,,Scattered Clouds,60,2012-12-01 02:35:00
8:55 PM,46.6,36.5,68,30.10,10.0,NE,10.4,-,N/A,,Scattered Clouds,50,2012-12-01 02:55:00
9:15 PM,46.0,36.5,69,30.10,10.0,ENE,9.2,-,N/A,,Clear,60,2012-12-01 03:15:00
9:35 PM,45.5,36.5,71,30.11,10.0,ENE,9.2,-,N/A,,Clear,70,2012-12-01 03:35:00
9:55 PM,45.5,36.5,71,30.10,10.0,ENE,10.4,-,N/A,,Clear,70,2012-12-01 03:55:00
10:15 PM,45.5,36.5,71,30.10,10.0,ENE,11.5,-,N/A,,Clear,70,2012-12-01 04:15:00
10:35 PM,43.9,36.0,74,30.11,10.0,Calm,Calm,-,N/A,,Clear,0,2012-12-01 04:35:00
10:55 PM,43.9,36.1,74,30.11,10.0,Calm,Calm,-,N/A,,Clear,0,2012-12-01 04:55:00
11:15 PM,43.7,36.3,75,30.11,10.0,Calm,Calm,-,N/A,,Clear,0,2012-12-01 05:15:00
11:35 PM,41.5,35.2,78,30.09,10.0,Calm,Calm,-,N/A,,Clear,0,2012-12-01 05:35:00
11:55 PM,41.9,35.8,79,30.10,10.0,Calm,Calm,-,N/A,,Scattered Clouds,0,2012-12-01 05:55:00